Flag for Cuba Weather past 2 weeks in Santiago de Cuba, Cuba

Now
73 °F

Mild.


Feels Like: 74 °F
Forecast: 71 / 87 °F
Wind: 3 mph from Northeast

Location: Santiago De Cuba - Oriente

Current Time: Apr 19, 2015 at 4:15:56 AM

Latest Report: Apr 19, 2015 at 3:05 AM


Visibility: N/A

Pressure: 29.95 "Hg

Humidity: 78%

Dew point: 66 °F

Location of Santiago de CubaLocation

Historic Weather in Santiago de Cuba — Graph

°F

Santiago de Cuba temperature yesterday

Maximum temperature yesterday: 84 °F (at 12:50 PM)
Minimum temperature yesterday: 72 °F (at 5:50 AM)
Average temperature yesterday: 79 °F

Past Weeks' High & Low Weather Summary

 TemperatureHumidityPressure
High86 °F (Apr 7, 1:51 PM)89% (Apr 16, 1:51 AM)30.09 "Hg (Apr 16, 1:51 AM)
Low70 °F (Apr 4, 5:52 AM)45% (Apr 15, 10:50 AM)29.92 "Hg (Apr 5, 3:53 PM)
Average78 °F69%30.02 "Hg
* Reported Apr 4 3:52 AM — Apr 19 3:05 AM, Santiago de Cuba, Weather by CustomWeather, © 2015

Note: Actual official high and low records may vary slightly from our data, if they occured in-between our weather recording intervals... More about our weather records

Advertising

Santiago de Cuba weather history for previous 24 hours

 ConditionsComfort  
Time TempWeatherWind HumidityBarometerVisibility
3:05 AM
Sun, Apr 19
73 °FMild.3 mph78%29.95 "HgN/A
2:05 AM73 °FMild.6 mph78%29.98 "HgN/A
1:05 AM75 °FMild.3 mph78%30.01 "HgN/A
11:50 PM
Sat, Apr 18
77 °FPassing clouds.2 mph74%30.01 "Hg6 mi
10:50 PM77 °FPassing clouds.5 mph74%30.01 "Hg6 mi
9:50 PM79 °FPassing clouds.2 mph70%30.01 "Hg6 mi
8:50 PM79 °FPassing clouds.3 mph70%29.98 "Hg6 mi
7:50 PM81 °FPassing clouds.6 mph66%29.98 "Hg6 mi
6:50 PM81 °FPassing clouds.6 mph66%29.95 "Hg6 mi
5:50 PM82 °FPassing clouds.9 mph62%29.92 "HgN/A
4:52 PM84 °FPassing clouds.9 mph58%29.95 "HgN/A
3:50 PM84 °FPassing clouds.10 mph58%29.95 "HgN/A
2:51 PM84 °FPassing clouds.10 mph58%29.98 "HgN/A
1:50 PM84 °FScattered clouds.10 mph58%30.01 "HgN/A
12:50 PM84 °FScattered clouds.12 mph62%30.01 "HgN/A
11:50 AM82 °FScattered clouds.9 mph62%30.04 "HgN/A
10:50 AM82 °FScattered clouds.7 mph62%30.07 "HgN/A
9:50 AM81 °FScattered clouds.6 mph66%30.07 "HgN/A
8:50 AM81 °FPassing clouds.5 mph66%30.04 "HgN/A
7:52 AM77 °FPassing clouds.3 mph74%30.04 "Hg6 mi
6:52 AM72 °FPassing clouds.6 mph83%30.01 "Hg6 mi
5:50 AM72 °FPassing clouds.5 mph83%29.98 "Hg6 mi
4:50 AM73 °FPassing clouds.3 mph78%29.98 "Hg6 mi
Weather by CustomWeather, © 2015

See weather overviewHow to use our weather pages